Showing default

HORACIO, 59098

Orbit data source: Space-Track

HORACIO, 59098 is a payload satellite owned by Satlantis (ES) in SSO that was launched on Mon, 04 Mar 2024 UTC via an FALCON 9 launch vehicle from the Air Force Western Test Range (AFWTR). Payload-class satellites include a variety of spacecraft equipped with specific instruments for various scientific and technological missions. These include communications satellites like Starlink; space stations such as the ISS; scientific satellites like the Hubble; Earth observation satellites from companies like Planet Labs, Umbra, and HawkEye 360; GPS; miniature CubeSats for education and research; and military/defense satellites.

Loading next visibility...
Identifier
59098, 2024-043A
Orbit
SSO
Country
Flag of ESES / SPN
Related business
Manufacturer
NanoAvionics
Mission
Operational Commercial Imaging
Bus & Motor
CUBESAT 16U M16P, Unknown motor
Mass
~20 kg wet, ~20 kg dry
Launch date (UTC)
2024-03-04 (2 years ago)
Launch vehicle
FALCON 9
Launch site
Air Force Western Test Range (AFWTR)
Object type
Payload
Rocket body
Debris
Shape & HBR
Box, 0.2 m
Radar Cross Section
0.100 m², Medium (>0.1 m² and < 1m²)

Expand to show TLE details & history
Last TLE update: 12 hours ago

TLE from 12 hours ago
0 HORACIO
1 59098U 24043A   25347.32642188  .00004528  00000-0  39457-3 0  9999
2 59098  97.8282 113.3623 0009636 284.7947  75.2207 14.97367137 96841
Epoch: 2025-12-13T07:50Z
TLE epoch observation values (Epoch: 2025-12-13T07:50:02.850Z)
Latitude
Longitude
-86.40487°
Altitude
576.379 km
Speed
7.573 km/s
True Right ascension
07h 33m 26s
True Declination
0° 00' 00"
Sunlit
Object was in full shadow at epoch
Visualization orbit readout
Latitude
Unknown
Longitude
Unknown
Altitude
Unknown
Speed
Unknown
Apparent Right ascension
Unknown
Apparent Declination
Unknown
Sunlit
N/A
Visualization observer readout
Local Sidereal Time
18:13:36
Azimuth
Unknown
Elevation
Unknown
Doppler factor
Unknown
Orbital elements
Apogee altitude
578.747 km
Perigee altitude
565.352 km
Semi-major axis
6,950.187 km
Eccentricity
0.00096
Inclination
97.8282°
RAAN
113.3623°
Arg. of periapsis
284.7947°
True anomaly
75.3275°
Mean anomaly
75.2207°
Eccentric anomaly
75.2741°
Mean motion
3.74583 °/min
Orbital period
96.11 mins
BSTAR
0.00039457
Loading maneuver chart data...
Computing Atmospheric mass density...
Loading historical data...
Loading historical data...
Loading historical data...
Loading historical data...
Loading historical data...
Loading historical data...
Loading historical data...

Documentation

Showing up to 5 results
|